Chongqing, China

5:09 PM CST on November 20, 2019 (GMT +0800)
Jiangbei

Weather History for ZUCK - September, 2019

Change the Weather History Date:

Monday, September 30, 2019

  Actual Average (WUND) Record (WUND)
Temperature  
Mean Temperature 80 °F -  
Max Temperature 86 °F - - (-1)
Min Temperature 73 °F - - (-1)
Cooling Degree Days 14    
Growing Degree Days 30 (Base 50)    
Moisture  
Dew Point 62 °F    
Average Humidity 54    
Maximum Humidity 69    
Minimum Humidity 34    
Precipitation  
Precipitation 0.00 in - - ()
Sea Level Pressure  
Sea Level Pressure 29.86 in    
Wind  
Wind Speed 4 mph ()    
Max Wind Speed 9 mph    
Max Gust Speed -    
Visibility 4.4 miles    
Events      
Averages and records for this station are not official NWS values.
T = Trace of Precipitation, MM = Missing Value Source: Averaged Metar Reports

Daily Weather History Graph

Daily Weather History Graph

Search for Another Location

Airport or City:

Astronomy

Sep. 30, 2019 Rise Set
Actual Time 6:45 AM CST 6:41 PM CST
Civil Twilight 6:21 AM CST 7:04 PM CST
Nautical Twilight 5:54 AM CST 7:32 PM CST
Astronomical Twilight 5:26 AM CST 8:00 PM CST
Moon 8:06 AM CST (9/30) 8:03 PM CST (9/30)
Length of Visible Light 12h 42m
Length of Day
11h 55m
Waxing Crescent, 3% of the Moon is Illuminated
Sep 30
Waxing Crescent
Oct 6
First Quarter
Oct 14
Full
Oct 21
Last Quarter
Oct 28
New

Hourly Weather History & Observations

Time (CST) Temp. Heat Index Dew Point Humidity Pressure Visibility Wind Dir Wind Speed Gust Speed Precip Events Conditions
12:00 AM 77.0 °F - 60.8 °F 57% 29.92 in - North 6.7 mph - N/A   Clear
1:00 AM 77.0 °F - 60.8 °F 57% 29.92 in - NNE 6.7 mph - N/A   Clear
2:00 AM 76 °F - 64 °F 58% 29.84 in 4 mi NNW 2.2 mph - -   Mist
2:00 AM 73.4 °F - 60.8 °F 65% 29.92 in - NNE 6.7 mph - N/A   Clear
3:00 AM 77.0 °F - 60.8 °F 57% 29.89 in - Variable 2.2 mph - N/A   Clear
4:00 AM 73.4 °F - 60.8 °F 65% 29.89 in - North 6.7 mph - N/A   Clear
5:00 AM 74 °F - 65 °F 66% 29.81 in 4 mi NW 2.2 mph - -   Mist
5:00 AM 73.4 °F - 62.6 °F 69% 29.89 in - NNE 4.5 mph - N/A   Clear
6:00 AM 73.4 °F - 62.6 °F 69% 29.89 in - North 4.5 mph - N/A   Clear
7:00 AM 73.4 °F - 62.6 °F 69% 29.89 in - NNE 6.7 mph - N/A   Clear
8:00 AM 74 °F - 65 °F 67% 29.86 in 4 mi WNW 2.2 mph - -   Mist
9:00 AM 77.0 °F - 62.6 °F 61% 29.95 in 5.0 mi Variable 2.2 mph - N/A   Unknown
10:00 AM 80.6 °F 81.8 °F 62.6 °F 54% 29.95 in 5.0 mi Variable 2.2 mph - N/A   Unknown
11:00 AM 82 °F - 62 °F 41% 29.86 in 4 mi Calm Calm - -   Mist
11:00 AM 80.6 °F 81.5 °F 60.8 °F 51% 29.95 in - ESE 6.7 mph - N/A   Clear
12:00 PM 80.6 °F 81.8 °F 62.6 °F 54% 29.92 in - ESE 4.5 mph - N/A   Clear
1:00 PM 82.4 °F 82.9 °F 60.8 °F 48% 29.89 in - ESE 4.5 mph - N/A   Clear
2:00 PM 84 °F - 64 °F 41% 29.80 in 4 mi Calm Calm - -   Mist
2:00 PM 84.2 °F 84.4 °F 60.8 °F 45% 29.86 in - Variable 2.2 mph - N/A   Clear
3:00 PM 82.4 °F 83.4 °F 62.6 °F 51% 29.86 in - South 4.5 mph - N/A   Clear
4:00 PM 86.0 °F 86.6 °F 62.6 °F 45% 29.83 in - Variable 2.2 mph - N/A   Clear
5:00 PM 86 °F - 62 °F 34% 29.74 in 6 mi NNW 2.2 mph - -   Mostly Cloudy
5:00 PM 84.2 °F 85.0 °F 62.6 °F 48% 29.80 in - SE 4.5 mph - N/A   Clear
6:00 PM 82.4 °F 83.9 °F 64.4 °F 54% 29.80 in - Variable 2.2 mph - N/A   Clear
7:00 PM 82.4 °F 83.4 °F 62.6 °F 51% 29.80 in - NNE 4.5 mph - N/A   Clear
8:00 PM 82 °F - 64 °F 44% 29.74 in 4 mi NNW 2.2 mph - -   Mist
8:00 PM 82.4 °F 82.9 °F 60.8 °F 48% 29.80 in - ENE 4.5 mph - N/A   Clear
9:00 PM 80.6 °F 81.8 °F 62.6 °F 54% 29.83 in - NNE 2.2 mph - N/A   Clear
10:00 PM 80.6 °F 81.8 °F 62.6 °F 54% 29.83 in - North 4.5 mph - N/A   Clear
11:00 PM 79 °F - 64 °F 52% 29.76 in - NW 4.5 mph - -   Mist
11:00 PM 78.8 °F - 62.6 °F 57% 29.83 in - North 8.9 mph - N/A   Clear